EZY31HQ EGMC-LEBL

Flight info

Callsign EZY31HQ
Flight time 1h 38m
Altitude 32000
Route DET M604 LYD UM189 WAFFU DCT SITET/N0438F330 UN859 SOPIL DCT BALAN DCT EVPOK DCT NARAK DCT GAI DCT LOMRA DCT ROCAN DCT PUMAL
Aircraft A320/M-SDE3FGHIRWY/LB1

Departure

Time 2026-04-15 10:40
Airport London Southend Airport (EGMC)

Arrival

Time 2026-04-15 12:18
Airport Josep Tarradellas Barcelona-El Prat Airport (LEBL)
Time Latitude Longitude Altitude Speed Heading
2026-04-15 10:06 51.57004 0.70291 49 ft 0 kts 94°
2026-04-15 10:33 51.57004 0.70253 54 ft 4 kts 79°
2026-04-15 10:33 51.56995 0.70215 49 ft 4 kts 41°
2026-04-15 10:33 51.56982 0.70203 51 ft 0 kts
2026-04-15 10:36 51.56985 0.70204 54 ft 1 kts
2026-04-15 10:36 51.57008 0.70207 54 ft 5 kts
2026-04-15 10:36 51.57056 0.70212 54 ft 9 kts
2026-04-15 10:36 51.57128 0.70219 54 ft 12 kts
2026-04-15 10:37 51.57208 0.70228 54 ft 10 kts
2026-04-15 10:37 51.57265 0.70247 51 ft 7 kts 31°
2026-04-15 10:37 51.57298 0.70312 54 ft 8 kts 53°
2026-04-15 10:37 51.57327 0.70377 54 ft 7 kts 54°
2026-04-15 10:38 51.57353 0.70428 54 ft 5 kts 39°
2026-04-15 10:38 51.57396 0.70448 54 ft 8 kts 11°
2026-04-15 10:38 51.57448 0.70465 54 ft 8 kts 11°
2026-04-15 10:38 51.57497 0.70480 51 ft 7 kts 11°
2026-04-15 10:39 51.57539 0.70480 53 ft 5 kts 336°
2026-04-15 10:39 51.57544 0.70444 54 ft 2 kts 243°
2026-04-15 10:39 51.57540 0.70439 54 ft 0 kts 233°
2026-04-15 10:39 51.57451 0.70243 53 ft 63 kts 234°
2026-04-15 10:40 51.57028 0.69298 57 ft 143 kts 234°
2026-04-15 10:40 51.56402 0.67870 664 ft 158 kts 230°
2026-04-15 10:40 51.55742 0.66404 1530 ft 165 kts 229°
2026-04-15 10:40 51.55026 0.64839 1937 ft 185 kts 229°
2026-04-15 10:41 51.54202 0.63089 2387 ft 204 kts 227°
2026-04-15 10:41 51.53060 0.61729 3147 ft 209 kts 200°
2026-04-15 10:41 51.51616 0.61393 3980 ft 213 kts 184°
2026-04-15 10:41 51.50099 0.61290 4605 ft 228 kts 186°
2026-04-15 10:42 51.48442 0.61155 5133 ft 246 kts 186°
2026-04-15 10:42 51.46712 0.61014 5975 ft 251 kts 185°
2026-04-15 10:42 51.44961 0.60868 6851 ft 253 kts 185°
2026-04-15 10:42 51.43791 0.60773 7428 ft 255 kts 185°
2026-04-15 10:43 51.42006 0.60630 8021 ft 257 kts 185°
2026-04-15 10:43 51.40218 0.60486 8461 ft 258 kts 185°
2026-04-15 10:43 51.38425 0.60344 8848 ft 258 kts 185°
2026-04-15 10:43 51.36621 0.60204 9121 ft 260 kts 185°
2026-04-15 10:44 51.34813 0.60067 9301 ft 260 kts 185°
2026-04-15 10:44 51.33000 0.59929 9480 ft 261 kts 185°
2026-04-15 10:44 51.31156 0.60006 9402 ft 263 kts 176°
2026-04-15 10:44 51.29343 0.59955 9770 ft 263 kts 198°
2026-04-15 10:45 51.27605 0.58969 10221 ft 279 kts 201°
2026-04-15 10:45 51.25682 0.57908 10592 ft 296 kts 200°
2026-04-15 10:45 51.23702 0.56863 11223 ft 303 kts 199°
2026-04-15 10:45 51.21709 0.55834 11904 ft 308 kts 199°
2026-04-15 10:46 51.19652 0.54786 12602 ft 313 kts 199°
2026-04-15 10:46 51.17533 0.53710 13297 ft 318 kts 199°
2026-04-15 10:46 51.15438 0.52648 13913 ft 323 kts 199°
2026-04-15 10:46 51.13285 0.51557 14564 ft 326 kts 199°
2026-04-15 10:47 51.11122 0.50458 15231 ft 328 kts 199°
2026-04-15 10:47 51.08940 0.49347 15907 ft 330 kts 199°
2026-04-15 10:47 51.06746 0.48226 16611 ft 332 kts 199°
2026-04-15 10:47 51.04538 0.47092 17315 ft 335 kts 199°
2026-04-15 10:48 51.02318 0.45956 18089 ft 335 kts 199°
2026-04-15 10:48 51.00091 0.44820 18748 ft 337 kts 199°
2026-04-15 10:48 50.97852 0.43684 19359 ft 339 kts 199°
2026-04-15 10:48 50.95596 0.42544 19953 ft 342 kts 199°
2026-04-15 10:49 50.93322 0.41396 20538 ft 345 kts 199°
2026-04-15 10:49 50.91027 0.40242 21113 ft 347 kts 199°
2026-04-15 10:49 50.88718 0.39080 21697 ft 350 kts 199°
2026-04-15 10:49 50.86388 0.37899 22264 ft 353 kts 199°
2026-04-15 10:50 50.84038 0.36710 22835 ft 356 kts 199°
2026-04-15 10:50 50.81668 0.35515 23383 ft 359 kts 199°
2026-04-15 10:50 50.79281 0.34312 23868 ft 362 kts 199°
2026-04-15 10:50 50.76876 0.33104 24313 ft 364 kts 199°
2026-04-15 10:51 50.74455 0.31891 24761 ft 366 kts 199°
2026-04-15 10:51 50.72020 0.30672 25208 ft 367 kts 199°
2026-04-15 10:51 50.69582 0.29450 25642 ft 369 kts 199°
2026-04-15 10:51 50.67136 0.28223 26069 ft 370 kts 199°
2026-04-15 10:52 50.64672 0.26993 26475 ft 372 kts 199°
2026-04-15 10:52 50.62204 0.25765 26877 ft 373 kts 199°
2026-04-15 10:52 50.59727 0.24530 27273 ft 375 kts 199°
2026-04-15 10:52 50.57227 0.23280 27663 ft 377 kts 200°
2026-04-15 10:53 50.54724 0.22032 28058 ft 378 kts 199°
2026-04-15 10:53 50.52209 0.20782 28429 ft 380 kts 199°
2026-04-15 10:53 50.49680 0.19530 28807 ft 382 kts 199°
2026-04-15 10:53 50.47145 0.18273 29164 ft 383 kts 199°
2026-04-15 10:54 50.44594 0.17009 29521 ft 385 kts 199°
2026-04-15 10:54 50.42035 0.15742 29850 ft 387 kts 199°
2026-04-15 10:54 50.39466 0.14470 30173 ft 389 kts 200°
2026-04-15 10:54 50.36879 0.13193 30445 ft 390 kts 200°
2026-04-15 10:55 50.34284 0.11912 30713 ft 392 kts 200°
2026-04-15 10:55 50.31678 0.10625 30978 ft 393 kts 200°
2026-04-15 10:55 50.29062 0.09335 31232 ft 395 kts 200°
2026-04-15 10:55 50.26437 0.08043 31491 ft 396 kts 200°
2026-04-15 10:56 50.23809 0.06750 31845 ft 395 kts 200°
2026-04-15 10:56 50.21193 0.05465 32207 ft 394 kts 200°
2026-04-15 10:56 50.18583 0.04189 32541 ft 393 kts 200°
2026-04-15 10:56 50.16011 0.02935 32863 ft 393 kts 200°
2026-04-15 10:57 50.13399 0.01695 33195 ft 393 kts 197°
2026-04-15 10:57 50.07920 0.01115 33865 ft 402 kts 178°
2026-04-15 10:57 50.05165 0.02025 34182 ft 407 kts 171°
2026-04-15 10:58 50.02437 0.03182 34454 ft 407 kts 171°
2026-04-15 10:58 49.99708 0.04337 34723 ft 406 kts 171°
2026-04-15 10:58 49.96982 0.05482 34973 ft 406 kts 171°
2026-04-15 10:58 49.94252 0.06621 35183 ft 406 kts 171°
2026-04-15 10:59 49.91521 0.07759 35401 ft 407 kts 171°
2026-04-15 10:59 49.88789 0.08899 35627 ft 407 kts 171°
2026-04-15 10:59 49.86063 0.10036 35870 ft 406 kts 171°
2026-04-15 10:59 49.83331 0.11176 36100 ft 406 kts 171°
2026-04-15 11:00 49.80607 0.12306 36321 ft 405 kts 171°
2026-04-15 11:00 49.77882 0.13432 36550 ft 405 kts 171°
2026-04-15 11:00 49.75160 0.14560 36773 ft 405 kts 171°
2026-04-15 11:00 49.72443 0.15688 36952 ft 405 kts 171°
2026-04-15 11:01 49.69721 0.16817 37107 ft 405 kts 171°
2026-04-15 11:01 49.66993 0.17941 37136 ft 407 kts 171°
2026-04-15 11:01 49.61483 0.20212 37137 ft 411 kts 171°
2026-04-15 11:02 49.55949 0.22505 37138 ft 412 kts 171°
2026-04-15 11:02 49.50414 0.24783 37127 ft 412 kts 171°
2026-04-15 11:03 49.44854 0.27055 37133 ft 414 kts 171°
2026-04-15 11:03 49.39293 0.29334 37133 ft 414 kts 171°
2026-04-15 11:04 49.33734 0.31611 37136 ft 414 kts 171°
2026-04-15 11:04 49.28171 0.33875 37120 ft 414 kts 171°
2026-04-15 11:05 49.22600 0.36130 37119 ft 414 kts 171°
2026-04-15 11:05 49.17027 0.38398 37127 ft 415 kts 171°
2026-04-15 11:06 49.11447 0.40659 37136 ft 415 kts 171°
2026-04-15 11:06 49.05908 0.42889 37148 ft 412 kts 171°
2026-04-15 11:07 49.00344 0.45133 37107 ft 410 kts 171°
2026-04-15 11:07 48.94857 0.47338 37113 ft 411 kts 171°
2026-04-15 11:08 48.89323 0.49545 37126 ft 411 kts 171°
2026-04-15 11:08 48.83781 0.51753 37127 ft 412 kts 171°
2026-04-15 11:09 48.78234 0.53970 37146 ft 412 kts 171°
2026-04-15 11:09 48.72688 0.56178 37149 ft 412 kts 171°
2026-04-15 11:10 48.67140 0.58379 37156 ft 412 kts 171°
2026-04-15 11:10 48.61594 0.60586 37135 ft 412 kts 171°
2026-04-15 11:11 48.56038 0.62783 37156 ft 413 kts 171°
2026-04-15 11:11 48.50471 0.64972 37154 ft 413 kts 171°
2026-04-15 11:12 48.44904 0.67148 37161 ft 414 kts 171°
2026-04-15 11:12 48.39328 0.69335 37156 ft 414 kts 171°
2026-04-15 11:13 48.33752 0.71537 37167 ft 414 kts 171°
2026-04-15 11:13 48.28170 0.73728 37170 ft 415 kts 171°
2026-04-15 11:14 48.22578 0.75900 37173 ft 415 kts 171°
2026-04-15 11:14 48.16987 0.78070 37157 ft 416 kts 171°
2026-04-15 11:15 48.11384 0.80247 37158 ft 416 kts 171°
2026-04-15 11:15 48.05776 0.82415 37163 ft 417 kts 171°
2026-04-15 11:16 48.00158 0.84580 37154 ft 417 kts 172°
2026-04-15 11:16 47.94517 0.86746 37166 ft 421 kts 171°
2026-04-15 11:17 47.88836 0.88941 37166 ft 422 kts 171°
2026-04-15 11:17 47.83150 0.91134 37173 ft 422 kts 171°
2026-04-15 11:18 47.77457 0.93307 37158 ft 423 kts 171°
2026-04-15 11:18 47.71754 0.95481 37173 ft 424 kts 171°
2026-04-15 11:19 47.66033 0.97667 37169 ft 425 kts 171°
2026-04-15 11:19 47.60345 0.99837 37188 ft 425 kts 171°
2026-04-15 11:20 47.54610 1.02016 37183 ft 426 kts 171°
2026-04-15 11:20 47.48861 1.04191 37187 ft 427 kts 171°
2026-04-15 11:21 47.43104 1.06340 37194 ft 426 kts 174°
2026-04-15 11:21 47.37291 1.07732 37183 ft 423 kts 176°
2026-04-15 11:22 47.31466 1.09086 37189 ft 424 kts 176°
2026-04-15 11:22 47.25631 1.10456 37199 ft 425 kts 176°
2026-04-15 11:23 47.19784 1.11812 37207 ft 425 kts 176°
2026-04-15 11:23 47.13927 1.13157 37192 ft 426 kts 176°
2026-04-15 11:24 47.08066 1.14500 37201 ft 427 kts 176°
2026-04-15 11:24 47.02188 1.15851 37211 ft 428 kts 176°
2026-04-15 11:25 46.96302 1.17208 37207 ft 428 kts 176°
2026-04-15 11:25 46.90414 1.18554 37205 ft 429 kts 176°
2026-04-15 11:26 46.84516 1.19898 37214 ft 429 kts 176°
2026-04-15 11:26 46.78614 1.21239 37213 ft 430 kts 176°
2026-04-15 11:27 46.72704 1.22575 37204 ft 430 kts 176°
2026-04-15 11:27 46.66777 1.23919 37206 ft 432 kts 176°
2026-04-15 11:28 46.61834 1.25036 37206 ft 433 kts 176°
2026-04-15 11:28 46.55877 1.26372 37193 ft 434 kts 176°
2026-04-15 11:29 46.49906 1.27717 37202 ft 435 kts 176°
2026-04-15 11:29 46.43916 1.29077 37203 ft 436 kts 176°
2026-04-15 11:30 46.37919 1.30425 37211 ft 437 kts 176°
2026-04-15 11:30 46.31910 1.31759 37203 ft 437 kts 176°
2026-04-15 11:31 46.25894 1.33102 37209 ft 438 kts 176°
2026-04-15 11:31 46.19869 1.34450 37214 ft 438 kts 176°
2026-04-15 11:32 46.13838 1.35791 37209 ft 439 kts 176°
2026-04-15 11:32 46.07793 1.37127 37217 ft 439 kts 176°
2026-04-15 11:33 46.01746 1.38468 37222 ft 440 kts 176°
2026-04-15 11:33 45.95693 1.39804 37217 ft 440 kts 176°
2026-04-15 11:34 45.89637 1.41142 37219 ft 441 kts 176°
2026-04-15 11:34 45.83564 1.42467 37219 ft 442 kts 176°
2026-04-15 11:35 45.77483 1.43788 37229 ft 442 kts 176°
2026-04-15 11:35 45.71395 1.45116 37215 ft 443 kts 176°
2026-04-15 11:36 45.65301 1.46456 37208 ft 443 kts 176°
2026-04-15 11:36 45.59200 1.47788 37212 ft 444 kts 176°
2026-04-15 11:37 45.53095 1.49116 37198 ft 444 kts 176°
2026-04-15 11:37 45.46983 1.50442 37202 ft 445 kts 176°
2026-04-15 11:38 45.40858 1.51771 37206 ft 445 kts 176°
2026-04-15 11:38 45.34726 1.53097 37204 ft 446 kts 176°
2026-04-15 11:39 45.28595 1.54424 37204 ft 446 kts 176°
2026-04-15 11:39 45.22441 1.55743 37199 ft 448 kts 176°
2026-04-15 11:40 45.16267 1.57061 37189 ft 449 kts 175°
2026-04-15 11:40 45.10073 1.58379 37194 ft 451 kts 175°
2026-04-15 11:41 45.03861 1.59709 37198 ft 452 kts 175°
2026-04-15 11:41 44.97642 1.61038 37218 ft 452 kts 175°
2026-04-15 11:42 44.91409 1.62362 37213 ft 453 kts 175°
2026-04-15 11:42 44.85169 1.63687 37217 ft 454 kts 175°
2026-04-15 11:43 44.78959 1.64996 37221 ft 454 kts 175°
2026-04-15 11:43 44.72707 1.66324 37229 ft 455 kts 175°
2026-04-15 11:44 44.66450 1.67655 37230 ft 455 kts 175°
2026-04-15 11:44 44.60195 1.68962 37223 ft 455 kts 175°
2026-04-15 11:45 44.53932 1.70263 37227 ft 455 kts 175°
2026-04-15 11:45 44.47665 1.71573 37227 ft 456 kts 175°
2026-04-15 11:46 44.41395 1.72894 37230 ft 456 kts 175°
2026-04-15 11:46 44.35115 1.74213 37213 ft 457 kts 175°
2026-04-15 11:47 44.28826 1.75511 37219 ft 457 kts 175°
2026-04-15 11:47 44.22528 1.76808 37223 ft 458 kts 175°
2026-04-15 11:48 44.16222 1.78117 37217 ft 458 kts 175°
2026-04-15 11:48 44.09910 1.79424 37220 ft 459 kts 175°
2026-04-15 11:49 44.03592 1.80730 37227 ft 459 kts 175°
2026-04-15 11:49 43.97265 1.82033 37217 ft 460 kts 175°
2026-04-15 11:50 43.90923 1.83088 37220 ft 459 kts 179°
2026-04-15 11:50 43.84602 1.83635 37228 ft 458 kts 181°
2026-04-15 11:51 43.78226 1.84092 37227 ft 459 kts 180°
2026-04-15 11:51 43.71849 1.84661 37230 ft 460 kts 179°
2026-04-15 11:52 43.65457 1.85306 37235 ft 461 kts 179°
2026-04-15 11:52 43.59062 1.85943 37231 ft 461 kts 179°
2026-04-15 11:53 43.52659 1.86560 37224 ft 462 kts 180°
2026-04-15 11:53 43.46243 1.87173 37215 ft 462 kts 179°
2026-04-15 11:54 43.39822 1.87792 37201 ft 463 kts 179°
2026-04-15 11:54 43.33390 1.88407 37202 ft 464 kts 179°
2026-04-15 11:55 43.26954 1.89016 37203 ft 464 kts 179°
2026-04-15 11:55 43.20484 1.89629 36814 ft 466 kts 179°
2026-04-15 11:56 43.17249 1.89938 36195 ft 466 kts 179°
2026-04-15 11:56 43.14019 1.90247 35494 ft 466 kts 179°
2026-04-15 11:56 43.10777 1.90558 34778 ft 467 kts 179°
2026-04-15 11:56 43.07533 1.90869 34043 ft 468 kts 179°
2026-04-15 11:57 43.04280 1.91180 33302 ft 468 kts 178°
2026-04-15 11:57 42.97805 1.91795 32037 ft 464 kts 178°
2026-04-15 11:57 42.94594 1.92097 31459 ft 461 kts 178°
2026-04-15 11:58 42.91400 1.92398 30925 ft 458 kts 178°
2026-04-15 11:58 42.88231 1.92699 30423 ft 455 kts 178°
2026-04-15 11:58 42.85087 1.92997 29865 ft 451 kts 178°
2026-04-15 11:58 42.81966 1.93288 29302 ft 448 kts 178°
2026-04-15 11:59 42.78869 1.93577 28780 ft 444 kts 177°
2026-04-15 11:59 42.75799 1.93867 28255 ft 440 kts 177°
2026-04-15 11:59 42.72757 1.94155 27738 ft 436 kts 177°
2026-04-15 11:59 42.69745 1.94437 27260 ft 432 kts 177°
2026-04-15 12:00 42.66753 1.94734 26780 ft 429 kts 176°
2026-04-15 12:00 42.63796 1.95177 26289 ft 426 kts 173°
2026-04-15 12:00 42.60870 1.95754 25832 ft 423 kts 172°
2026-04-15 12:00 42.58016 1.96392 25362 ft 421 kts 171°
2026-04-15 12:01 42.55138 1.97054 24885 ft 418 kts 171°
2026-04-15 12:01 42.52276 1.97696 24441 ft 415 kts 171°
2026-04-15 12:01 42.49437 1.98331 23989 ft 412 kts 170°
2026-04-15 12:01 42.46631 1.99058 23501 ft 409 kts 168°
2026-04-15 12:02 42.43853 1.99859 23012 ft 406 kts 167°
2026-04-15 12:02 42.41105 2.00690 22541 ft 403 kts 167°
2026-04-15 12:02 42.38379 2.01519 22106 ft 400 kts 167°
2026-04-15 12:02 42.35669 2.02331 21622 ft 398 kts 167°
2026-04-15 12:03 42.32968 2.03120 21152 ft 396 kts 167°
2026-04-15 12:03 42.30281 2.03891 20714 ft 393 kts 168°
2026-04-15 12:03 42.27617 2.04651 20279 ft 390 kts 168°
2026-04-15 12:03 42.24966 2.05405 19854 ft 388 kts 168°
2026-04-15 12:04 42.22335 2.06153 19440 ft 385 kts 167°
2026-04-15 12:04 42.19729 2.06895 19050 ft 381 kts 167°
2026-04-15 12:04 42.17141 2.07631 18657 ft 379 kts 167°
2026-04-15 12:04 42.14572 2.08356 18217 ft 376 kts 167°
2026-04-15 12:05 42.12017 2.09075 17749 ft 374 kts 167°
2026-04-15 12:05 42.09476 2.09794 17310 ft 372 kts 167°
2026-04-15 12:05 42.06955 2.10510 16888 ft 369 kts 167°
2026-04-15 12:05 42.04452 2.11220 16485 ft 366 kts 167°
2026-04-15 12:06 42.01971 2.11926 16107 ft 363 kts 167°
2026-04-15 12:06 41.99504 2.12627 15739 ft 361 kts 167°
2026-04-15 12:06 41.97055 2.13323 15355 ft 358 kts 167°
2026-04-15 12:06 41.94627 2.14011 14977 ft 356 kts 167°
2026-04-15 12:07 41.92209 2.14694 14596 ft 354 kts 167°
2026-04-15 12:07 41.89809 2.15368 14235 ft 351 kts 167°
2026-04-15 12:07 41.87422 2.16036 13848 ft 349 kts 167°
2026-04-15 12:07 41.85053 2.16701 13446 ft 346 kts 167°
2026-04-15 12:08 41.82702 2.17361 13044 ft 344 kts 168°
2026-04-15 12:08 41.80370 2.18015 12632 ft 340 kts 168°
2026-04-15 12:08 41.78068 2.18662 12006 ft 336 kts 168°
2026-04-15 12:08 41.75787 2.19300 11381 ft 334 kts 168°
2026-04-15 12:09 41.73526 2.19935 10790 ft 330 kts 168°
2026-04-15 12:09 41.71293 2.20566 10199 ft 326 kts 168°
2026-04-15 12:09 41.69137 2.21174 9926 ft 308 kts 168°
2026-04-15 12:09 41.67068 2.21753 9394 ft 301 kts 168°
2026-04-15 12:10 41.65034 2.22319 8803 ft 297 kts 169°
2026-04-15 12:10 41.63027 2.22876 8186 ft 293 kts 169°
2026-04-15 12:10 41.61040 2.23430 7579 ft 290 kts 169°
2026-04-15 12:10 41.59080 2.23978 6988 ft 286 kts 169°
2026-04-15 12:11 41.57127 2.24525 6511 ft 286 kts 169°
2026-04-15 12:11 41.55194 2.25065 6151 ft 282 kts 169°
2026-04-15 12:11 41.53282 2.25598 5781 ft 279 kts 169°
2026-04-15 12:11 41.51444 2.26405 5343 ft 278 kts 156°
2026-04-15 12:12 41.49680 2.27460 4945 ft 277 kts 157°
2026-04-15 12:12 41.47932 2.28496 4588 ft 273 kts 157°
2026-04-15 12:12 41.46225 2.29509 4423 ft 262 kts 157°
2026-04-15 12:12 41.44597 2.30465 4297 ft 250 kts 157°
2026-04-15 12:13 41.43045 2.31371 4176 ft 238 kts 157°
2026-04-15 12:13 41.41565 2.32234 4040 ft 227 kts 157°
2026-04-15 12:13 41.40092 2.32771 3914 ft 215 kts 183°
2026-04-15 12:13 41.38719 2.32221 3757 ft 205 kts 211°
2026-04-15 12:14 41.37655 2.30978 3400 ft 204 kts 236°
2026-04-15 12:14 41.37216 2.29894 3203 ft 199 kts 245°
2026-04-15 12:14 41.36659 2.28247 2959 ft 192 kts 245°
2026-04-15 12:14 41.36115 2.26642 2672 ft 189 kts 245°
2026-04-15 12:15 41.35580 2.25067 2415 ft 184 kts 245°
2026-04-15 12:15 41.35060 2.23536 2170 ft 179 kts 245°
2026-04-15 12:15 41.34551 2.22041 1930 ft 176 kts 245°
2026-04-15 12:15 41.34052 2.20575 1705 ft 172 kts 244°
2026-04-15 12:16 41.33571 2.19163 1462 ft 163 kts 244°
2026-04-15 12:16 41.33119 2.17837 1259 ft 153 kts 243°
2026-04-15 12:16 41.32686 2.16565 1061 ft 150 kts 243°
2026-04-15 12:16 41.32260 2.15320 854 ft 146 kts 244°
2026-04-15 12:17 41.31844 2.14095 673 ft 145 kts 244°
2026-04-15 12:17 41.31430 2.12877 469 ft 144 kts 244°
2026-04-15 12:17 41.31017 2.11671 272 ft 143 kts 243°
2026-04-15 12:17 41.30608 2.10469 90 ft 142 kts 244°
2026-04-15 12:18 41.30220 2.09344 19 ft 121 kts 246°
2026-04-15 12:18 41.29941 2.08527 25 ft 71 kts 245°
2026-04-15 12:18 41.29773 2.08015 18 ft 49 kts 252°
2026-04-15 12:18 41.29758 2.07696 14 ft 20 kts 277°
2026-04-15 12:19 41.29801 2.07609 14 ft 10 kts 341°
2026-04-15 12:19 41.29860 2.07608 16 ft 7 kts 20°
2026-04-15 12:19 41.29888 2.07648 16 ft 5 kts 66°
2026-04-15 12:19 41.29903 2.07695 17 ft 9 kts 65°
2026-04-15 12:20 41.29947 2.07823 18 ft 19 kts 66°
2026-04-15 12:20 41.30008 2.07997 18 ft 22 kts 65°
2026-04-15 12:20 41.30076 2.08197 19 ft 25 kts 66°
2026-04-15 12:20 41.30145 2.08400 22 ft 16 kts 65°
2026-04-15 12:21 41.30200 2.08490 19 ft 12 kts
2026-04-15 12:21 41.30256 2.08512 19 ft 9 kts 53°
2026-04-15 12:21 41.30285 2.08593 18 ft 11 kts 53°
2026-04-15 12:21 41.30356 2.08582 19 ft 11 kts 336°
2026-04-15 12:22 41.30428 2.08539 21 ft 11 kts 335°
2026-04-15 12:22 41.30481 2.08475 22 ft 9 kts 308°
2026-04-15 12:22 41.30507 2.08435 21 ft 5 kts 280°
2026-04-15 12:22 41.30492 2.08390 22 ft 3 kts 245°
2026-04-15 12:23 41.30487 2.08377 21 ft 0 kts 246°